STARLINK-32559, 61915

Orbit data source: Space-Track

STARLINK-32559, 61915 is a payload satellite owned by SpaceX/Seattle (US) in LEO that was launched on Mon, 11 Nov 2024 UTC via an FALCON 9 launch vehicle from the Air Force Eastern Test Range (AFETR). Payload-class satellites include a variety of spacecraft equipped with specific instruments for various scientific and technological missions. These include communications satellites like Starlink; space stations such as the ISS; scientific satellites like the Hubble; Earth observation satellites from companies like Planet Labs, Umbra, and HawkEye 360; GPS; miniature CubeSats for education and research; and military/defense satellites.

Loading next visibility...
Identifier
61915, 2024-207D
Orbit
LEO
Country
Flag of USUS
Related business
Manufacturer
SpaceX/Seattle
Mission
Operational Commercial Communications
Bus & Motor
STARLINK V2M, Unknown motor
Mass
730 kg wet, ~700 kg dry
Launch date (UTC)
2024-11-11 (1 year ago)
Launch vehicle
FALCON 9
Launch site
Air Force Eastern Test Range (AFETR)
Object type
Payload
Rocket body
Debris
Shape & HBR
Box + 2 Pan, 17.7 m
Radar Cross Section
33.884 m², Large (>1 m²)

Expand to show TLE details & history
Last TLE update: 20 hours ago

TLE from 20 hours ago
0 STARLINK-32559
1 61915U 24207D   26072.80150747  .00031726  00000-0  11566-2 0  9996
2 61915  43.0014 258.2879 0002150 276.2810  83.7797 15.27603756 75354
Epoch: 2026-03-13T19:14Z
TLE epoch observation values (Epoch: 2026-03-13T19:14:10.245Z)
Latitude
Longitude
158.31339°
Altitude
482.594 km
Speed
7.626 km/s
True Right ascension
17h 13m 09s
True Declination
0° 00' 00"
Sunlit
Object was in daylight at epoch
Visualization orbit readout
Latitude
Unknown
Longitude
Unknown
Altitude
Unknown
Speed
Unknown
Apparent Right ascension
Unknown
Apparent Declination
Unknown
Sunlit
N/A
Visualization observer readout
Local Sidereal Time
19:18:30
Azimuth
Unknown
Elevation
Unknown
Doppler factor
Unknown
Orbital elements
Apogee altitude
486.398 km
Perigee altitude
483.447 km
Semi-major axis
6,863.06 km
Eccentricity
0.00022
Inclination
43.0014°
RAAN
258.2879°
Arg. of periapsis
276.281°
True anomaly
83.80419°
Mean anomaly
83.7797°
Eccentric anomaly
83.79195°
Mean motion
3.81739 °/min
Orbital period
94.31 mins
BSTAR
0.0011566
Loading maneuver chart data...
Computing Atmospheric mass density...
Loading historical data...
Loading historical data...
Loading historical data...
Loading historical data...
Loading historical data...
Loading historical data...
Loading historical data...

Documentation

Showing up to 5 results
|